TBA - TO BE ASSIGNED

基本信息
目录编号:
82073
目录名称:
TBA - TO BE ASSIGNED
国际标识:
UNKNOWN
轨道中心:
EARTH
物体状态:
在轨
发射日期:
--
国别:
--
轨道信息
数据来源: 国际轨道数据
星历时间: 2026-09-10T05:13:30+0800
半长轴: 7136.162km
偏心率: 0.0204381
轨道倾角: 97.725°
近地点辐角: 178.397°
升交点赤经: 308.035°
平近点角: 181.793°
近地点: 612.175km
远地点: 903.875km
周期: 99.990分钟
每日圈数: 14.401434
详细信息
轨道高度:
LEO
数据来源:
AOE Integration Group
参考系:
TEME
时间系统:
UTC
历元类型:
SGP4
2D轨道图
3D轨道图
轨道高度分析图
轨道倾角分析图
轨道综合分析图
查看轨道综合分析图